TimeEDT,TemperatureF,Dew PointF,Humidity,Sea Level PressureIn,VisibilityMPH,Wind Direction,Wind SpeedMPH,Gust SpeedMPH,PrecipitationIn,Events,Conditions,WindDirDegrees,DateUTC
12:11 AM,59.0,55.4,88,30.04,6.0,Calm,Calm,-,N/A,,Overcast,0,2012-10-27 04:11:00
12:24 AM,59.0,55.4,88,30.03,6.0,Calm,Calm,-,N/A,,Overcast,0,2012-10-27 04:24:00
12:43 AM,59.0,55.4,88,30.03,6.0,NNE,3.5,-,N/A,,Overcast,30,2012-10-27 04:43:00
12:53 AM,59.0,55.9,90,30.01,4.0,Calm,Calm,-,0.00,Rain,Light Rain,0,2012-10-27 04:53:00
1:53 AM,60.1,57.9,93,29.99,3.0,NE,4.6,-,0.00,Rain,Light Rain,40,2012-10-27 05:53:00
2:13 AM,60.8,57.2,88,29.99,3.0,NE,3.5,-,0.00,Rain,Light Rain,50,2012-10-27 06:13:00
2:53 AM,60.1,57.9,93,29.97,5.0,NE,4.6,-,0.00,,Overcast,50,2012-10-27 06:53:00
3:53 AM,60.1,57.9,93,29.95,5.0,NNE,5.8,-,N/A,,Overcast,30,2012-10-27 07:53:00
4:53 AM,60.1,57.9,93,29.94,5.0,NE,8.1,-,N/A,,Overcast,40,2012-10-27 08:53:00
5:53 AM,59.0,57.0,93,29.94,3.0,ENE,8.1,-,N/A,,Overcast,60,2012-10-27 09:53:00
6:53 AM,59.0,57.0,93,29.95,8.0,ENE,8.1,-,N/A,,Overcast,60,2012-10-27 10:53:00
7:53 AM,59.0,57.0,93,29.96,4.0,NE,5.8,-,N/A,,Overcast,40,2012-10-27 11:53:00
8:53 AM,60.1,55.9,86,29.96,5.0,NNE,8.1,-,0.00,,Overcast,20,2012-10-27 12:53:00
9:10 AM,60.8,57.2,88,29.97,10.0,NNE,5.8,-,0.00,Rain,Light Rain,20,2012-10-27 13:10:00
9:53 AM,62.1,55.9,80,29.97,10.0,ENE,6.9,-,0.00,,Overcast,60,2012-10-27 13:53:00
10:03 AM,62.6,55.4,77,29.98,10.0,NE,6.9,-,N/A,,Overcast,50,2012-10-27 14:03:00
11:43 AM,64.4,55.4,73,29.95,10.0,NE,10.4,-,N/A,,Scattered Clouds,40,2012-10-27 15:43:00
11:53 AM,66.0,54.0,65,29.94,10.0,ENE,9.2,-,N/A,,Scattered Clouds,70,2012-10-27 15:53:00
12:01 PM,66.2,53.6,64,29.95,10.0,ENE,9.2,-,N/A,,Mostly Cloudy,70,2012-10-27 16:01:00
12:11 PM,66.2,53.6,64,29.94,10.0,ENE,11.5,-,N/A,,Scattered Clouds,60,2012-10-27 16:11:00
12:53 PM,68.0,53.1,59,29.90,10.0,North,9.2,-,N/A,,Mostly Cloudy,360,2012-10-27 16:53:00
1:53 PM,66.9,52.0,59,29.88,10.0,NNE,11.5,17.3,N/A,,Scattered Clouds,20,2012-10-27 17:53:00
2:53 PM,66.9,50.0,54,29.86,10.0,ENE,8.1,-,N/A,,Clear,60,2012-10-27 18:53:00
3:53 PM,66.0,48.0,52,29.86,10.0,NNE,11.5,-,N/A,,Clear,30,2012-10-27 19:53:00
4:53 PM,66.0,48.9,54,29.85,10.0,NE,12.7,-,N/A,,Clear,40,2012-10-27 20:53:00
5:53 PM,64.0,48.9,58,29.84,10.0,NNE,6.9,-,N/A,,Clear,30,2012-10-27 21:53:00
6:53 PM,62.1,50.0,65,29.84,10.0,NNE,6.9,-,N/A,,Clear,20,2012-10-27 22:53:00
7:53 PM,62.1,48.9,62,29.84,10.0,North,5.8,-,N/A,,Clear,10,2012-10-27 23:53:00
8:53 PM,60.1,48.9,67,29.84,10.0,NE,6.9,-,N/A,,Clear,40,2012-10-28 00:53:00
9:53 PM,60.1,48.9,67,29.85,10.0,NE,9.2,-,N/A,,Partly Cloudy,40,2012-10-28 01:53:00
10:53 PM,60.1,50.0,69,29.85,10.0,NNE,9.2,-,N/A,,Clear,30,2012-10-28 02:53:00